FLOCK 3P-72 (42051 NORAD) Tracking and Keplerian Element Data

This shows tracking and keplerian element data for the satellite.

Feedback or suggestion? Click here.




ElementValue
Catalog42051
NameFLOCK 3P-72
Epoch Orbit5300
Epoch Day46.15076716
Epoch Year2018
RAAN111.8284
Inclination97.4688
Eccentricity0.000956
Argument of Perigee70.6199
Mean Anonmoly289.6071
Mean Motion15.23714158
Decay Rate2.848E-05
L11 42051U 17008DH 18046.15076716 .00002848 00000-0 12146-3 0 9999
L22 42051 97.4688 111.8284 0009560 70.6199 289.6071 15.23714158 53001

Live tracking and technical data element details for FLOCK 3P-72 (NORAD 42051). FLOCK 3P-72 can be tracked NOW for your location showing map with azimuth and elevation plus other details from your city location.

Track the satellite on the map from your city or location and see movement details for azimuth, elevation, latitude, longitude, range, height, and movement on the map or in text.







IsCatalogInMostPopularTable: catalog: 42051, numindb: 166
Update: records affected: 1



GetName: 42051 FLOCK 3P-72

Hit Count: updated at: Wed, 14 Nov 2018 15:38:00 GMT